Location: Berkeley
(37.8716°N, 122.2727°W)
Time: 22:42:47
(UTC-07:00)

SR - All Passes

Search period start: 07 June 2026 00:00
Search period end: 17 June 2026 00:00
Orbit: 567 x 853 km, 66.7° (Epoch: 7 June)

Date Brightness Start Highest point End Pass type
(mag) Time Alt. Az. Time Alt. Az. Time Alt. Az.
7 Jun - 01:39:07 10° S 01:43:36 38° ESE 01:48:27 10° NE visible
7 Jun - 03:21:05 10° WSW 03:25:23 27° NW 03:29:59 10° N visible
7 Jun - 10:19:37 10° N 10:24:13 24° NE 10:28:44 10° ESE daylight
7 Jun - 12:00:39 10° NW 12:06:19 57° WSW 12:11:47 10° S daylight
8 Jun - 00:46:02 10° SE 00:48:55 16° ESE 00:51:55 10° ENE visible
8 Jun - 02:25:03 10° SW 02:29:56 59° WNW 02:35:16 10° NNE visible
8 Jun - 04:12:31 10° NW 04:12:54 10° NW 04:13:18 10° NNW visible
8 Jun - 09:25:56 10° NNE 09:28:23 13° NE 09:30:48 10° ENE daylight
8 Jun - 11:05:24 10° NNW 11:11:11 68° ENE 11:16:47 10° SE daylight
8 Jun - 12:48:46 10° WNW 12:52:16 17° WSW 12:55:41 10° SW daylight
9 Jun - 01:29:58 10° SSW 01:34:47 60° ESE 01:40:04 10° NE visible
9 Jun - 03:13:16 10° W 03:16:59 20° NW 03:20:53 10° N visible
9 Jun - 10:10:36 10° N 10:15:47 33° NE 10:20:52 10° ESE daylight
9 Jun - 11:52:16 10° NW 11:57:32 38° WSW 12:02:37 10° S daylight
10 Jun - 00:36:00 10° SSE 00:39:58 25° ESE 00:44:12 10° NE visible
10 Jun - 02:16:40 10° SW 02:21:22 39° NW 02:26:27 10° NNE visible
10 Jun - 09:16:20 10° N 09:20:06 17° NE 09:23:49 10° E daylight
10 Jun - 10:56:43 10° NNW 11:02:33 83° WSW 11:08:08 10° SSE daylight
10 Jun - 12:42:50 10° W 12:43:17 10° W 12:43:44 10° WSW daylight
11 Jun - 01:21:06 10° SSW 01:26:03 88° WNW 01:31:30 10° NNE visible
11 Jun - 03:05:54 10° WNW 03:08:39 14° NW 03:11:30 10° N visible
11 Jun - 10:01:42 10° NNW 10:07:17 47° ENE 10:12:42 10° SE daylight
11 Jun - 11:44:05 10° NW 11:48:40 25° WSW 11:53:08 10° SSW daylight
12 Jun - 00:26:31 10° S 00:31:05 39° ESE 00:36:01 10° NE visible
12 Jun - 02:08:33 10° WSW 02:12:52 27° NW 02:17:30 10° N visible
12 Jun - 09:07:07 10° N 09:11:44 24° NE 09:16:16 10° ESE daylight
12 Jun - 10:48:11 10° NW 10:53:49 56° WSW 10:59:14 10° S daylight
12 Jun - 23:33:21 10° SE 23:36:22 16° ESE 23:39:31 10° ENE visible
13 Jun - 01:12:29 10° SW 01:17:24 58° WNW 01:22:47 10° NNE visible
13 Jun - 02:59:59 10° NW 03:00:24 10° NW 03:00:49 10° NNW visible
13 Jun - 08:13:23 10° NNE 08:15:53 13° NE 08:18:23 10° ENE daylight
13 Jun - 09:52:54 10° NNW 09:58:42 69° ENE 10:04:16 10° SE daylight
13 Jun - 11:36:21 10° WNW 11:39:45 16° WSW 11:43:04 10° SW daylight
14 Jun - 00:17:23 10° SSW 00:22:15 61° ESE 00:27:35 10° NE visible
14 Jun - 02:00:44 10° W 02:04:28 20° NW 02:08:23 10° N visible
14 Jun - 08:58:05 10° N 09:03:17 33° NE 09:08:21 10° ESE daylight
14 Jun - 10:39:47 10° NW 10:45:01 37° WSW 10:50:03 10° S daylight
14 Jun - 23:23:22 10° SSE 23:27:24 26° ESE 23:31:44 10° NE visible
15 Jun - 01:04:06 10° WSW 01:08:50 39° NW 01:13:57 10° NNE visible
15 Jun - 08:03:47 10° N 08:07:36 18° NE 08:11:20 10° E daylight
15 Jun - 09:44:14 10° NNW 09:50:02 82° WSW 09:55:36 10° SSE daylight
16 Jun - 00:08:31 10° SSW 00:13:31 86° WNW 00:18:59 10° NNE visible
16 Jun - 01:53:21 10° WNW 01:56:08 14° NW 01:58:59 10° N visible
16 Jun - 08:49:11 10° NNW 08:54:46 48° ENE 09:00:09 10° SE daylight
16 Jun - 10:31:37 10° NW 10:36:08 24° WSW 10:40:31 10° SSW daylight
16 Jun - 23:13:53 10° S 23:18:31 40° ESE 23:23:31 10° NE visible
